Theta_e
319 316 315 310 297 294 289 292 292 293 294 297 299 298 299 298 299 293 307 319 323 326 330 336 345 347 346 347 346 347 347 346 346 346 344 342 340 339 337 337 338 339 339 338 336 336 335 335 336
314 315 310 301 292 285 288 293 293 294 296 298 298 297 297 298 302 304 310 317 323 325 328 330 338 344 343 343 341 339 339 339 340 339 338 336 336 335 334 333 332 332 332 331 331 330 329 327 327
313 311 304 296 289 286 289 292 293 295 296 296 296 296 297 297 300 304 310 319 321 321 325 328 337 339 339 338 338 339 338 339 339 337 334 334 332 330 328 326 326 326 326 325 325 323 322 321 321
308 303 297 293 290 293 293 295 294 294 295 298 296 295 297 301 302 305 309 318 317 318 321 331 337 337 336 335 336 336 335 337 335 333 331 330 327 325 324 323 323 323 323 323 322 320 319 319 319
303 298 291 288 288 291 293 295 296 295 293 295 296 293 295 298 301 304 313 315 314 314 318 325 335 335 335 335 335 334 335 334 331 329 327 325 323 322 322 321 322 321 321 320 319 318 318 318 318
298 296 289 286 288 293 295 296 296 294 295 294 294 293 296 296 301 304 310 310 312 313 316 320 328 331 332 332 331 330 331 330 327 325 324 322 321 321 320 320 320 319 319 318 318 318 317 317 316
297 293 288 287 289 293 296 295 294 294 293 295 296 293 296 295 301 304 306 307 309 311 313 314 319 323 327 328 328 327 327 326 324 322 321 320 319 319 318 318 318 318 318 317 315 314 314 313 313
298 295 290 289 290 292 295 294 295 296 296 296 298 294 294 295 300 301 303 304 305 307 309 309 312 314 315 316 324 324 324 323 321 320 319 317 315 315 314 317 316 316 316 314 312 310 309 309 308
297 290 287 289 290 293 293 293 295 296 294 295 298 295 296 297 299 298 297 300 301 304 305 306 307 308 308 309 314 319 320 320 319 317 315 309 300 302 302 311 312 312 312 311 309 306 304 302 303
295 287 289 293 293 292 294 293 294 295 292 293 296 295 295 296 298 298 296 298 299 301 302 303 303 303 304 307 306 305 307 305 304 301 300 296 295 297 300 305 308 307 307 307 305 303 300 295 290
295 292 293 296 298 296 295 293 295 293 292 295 296 297 294 294 295 298 298 300 301 302 301 301 302 301 300 302 300 299 298 296 296 295 293 293 294 296 294 293 291 290 294 290 291 290 289 289 289
293 297 297 298 298 296 294 295 294 294 300 298 298 296 294 293 294 296 297 298 297 297 299 300 300 299 297 297 298 296 295 293 293 292 293 292 292 290 289 289 288 287 287 287 287 287 288 288 289
294 296 298 298 298 297 296 295 295 295 297 298 297 296 295 295 295 296 297 297 295 295 297 297 298 299 298 294 295 294 293 294 292 292 293 292 290 289 288 288 287 286 286 286 286 286 286 287 288
294 296 296 297 296 296 296 296 294 300 296 297 296 296 295 295 296 295 294 294 293 295 295 296 297 297 297 295 294 295 293 293 291 291 292 291 290 288 288 287 286 285 286 286 286 285 285 285 286
295 292 293 294 295 295 295 293 291 300 295 296 295 295 295 295 295 295 297 296 296 295 294 294 296 296 296 295 293 293 293 293 292 291 290 290 290 288 287 287 286 285 285 286 285 285 285 284 285
289 289 286 290 293 293 295 289 296 295 295 295 295 293 294 296 296 298 298 297 297 296 294 293 296 295 295 295 294 294 293 293 292 290 289 290 289 288 287 286 285 285 285 285 284 283 283 283 283
284 282 283 287 293 292 291 288 295 294 292 294 294 294 293 294 295 296 298 298 298 296 295 293 294 294 294 294 294 293 292 292 292 288 288 288 288 288 287 285 285 285 284 284 284 282 282 282 282
282 281 283 284 289 289 288 288 294 296 293 294 295 295 294 295 297 299 297 298 298 296 296 294 294 294 294 294 292 290 290 291 288 289 288 288 288 287 286 285 284 284 283 283 282 282 282 282 281
284 283 283 287 290 287 289 290 292 296 295 293 295 297 298 299 301 300 298 297 296 294 295 294 292 293 293 292 290 290 290 289 288 288 288 287 287 286 285 284 283 283 282 282 282 282 281 281 281
287 286 286 290 292 287 288 288 292 293 295 297 298 298 297 299 301 300 295 294 295 295 295 294 293 293 293 293 293 292 292 288 290 288 287 287 286 286 284 284 283 282 282 282 281 282 280 281 280
286 284 286 286 288 287 286 287 289 291 294 297 298 299 299 299 299 301 298 293 294 294 295 294 294 293 293 293 292 286 286 284 283 284 285 285 286 285 284 283 283 282 281 281 280 281 280 280 280
285 289 288 287 283 282 284 280 284 289 289 291 294 296 297 297 298 298 299 293 293 295 295 295 294 293 293 293 291 290 289 288 287 289 287 285 285 284 284 284 283 282 281 280 280 281 280 280 279
287 289 287 284 281 281 282 279 283 286 285 290 294 296 297 298 297 297 298 295 294 295 294 294 292 291 292 292 291 291 290 290 285 284 284 285 284 285 284 283 282 281 281 280 280 280 280 279 279
288 285 284 281 280 277 282 281 286 284 287 288 291 292 294 296 296 296 295 294 294 291 290 291 290 290 291 290 290 290 289 285 284 284 284 284 284 283 282 282 281 281 280 280 280 280 280 279 279
286 283 278 275 274 277 281 281 287 287 288 290 292 293 295 295 293 292 291 292 292 290 288 289 289 288 289 289 289 289 289 286 287 285 285 284 283 283 282 282 281 280 280 280 280 280 279 279 278
284 285 279 273 276 280 280 277 286 290 291 292 291 292 291 292 294 291 291 292 291 290 289 289 288 288 288 289 289 289 289 287 287 286 286 285 285 284 283 282 281 280 280 280 280 279 279 279 279
283 282 288 281 279 277 279 284 288 294 294 289 289 290 289 290 290 290 290 291 289 288 288 288 288 288 288 288 289 288 288 287 287 286 286 285 285 284 282 283 281 280 280 280 279 279 278 278 279
286 286 280 280 274 273 279 281 282 289 291 292 290 290 290 289 290 289 289 290 289 287 287 287 288 289 288 288 289 289 289 288 288 285 285 285 285 284 282 282 281 280 280 279 279 278 278 278 278
283 281 282 283 282 278 277 282 288 292 294 292 291 289 289 289 289 290 291 291 290 288 286 287 287 287 287 288 289 289 288 287 287 285 286 285 284 283 282 282 281 280 280 279 278 278 278 277 277
285 286 286 281 280 282 282 282 292 294 295 295 292 292 291 291 290 291 293 292 292 291 289 288 287 287 288 288 288 287 287 286 286 285 284 285 283 282 283 281 281 280 280 279 278 277 277 276 276
Wind_Speed
2 3 2 5 5 5 4 6 3 3 2 2 4 5 9 4 7 7 2 5 6 9 7 7 10 15 13 12 11 10 13 12 11 11 11 10 8 7 7 6 8 9 8 8 8 8 8 9 11
2 1 5 3 5 2 6 5 7 6 2 6 5 3 1 6 2 2 5 8 8 8 6 6 8 10 10 10 7 5 6 6 7 8 7 7 8 8 8 8 8 8 9 9 10 10 9 10 11
1 4 4 5 4 5 5 5 5 2 3 2 2 2 3 4 2 6 6 12 8 7 7 6 8 11 13 14 12 11 9 9 10 10 8 8 9 9 8 9 8 9 9 9 9 8 9 9 9
3 5 5 4 7 8 7 6 4 2 2 4 2 4 3 3 5 7 9 10 9 7 6 9 13 15 14 14 14 15 14 13 12 12 11 11 10 10 9 9 9 9 10 9 9 9 9 9 11
5 3 2 1 6 7 6 5 7 6 2 3 3 4 4 2 2 6 11 11 11 8 6 6 13 14 15 15 15 15 15 15 15 14 13 12 11 11 11 10 10 10 9 9 9 10 10 11 13
4 3 3 4 6 6 7 6 7 4 2 1 2 1 6 2 6 7 8 8 7 9 7 6 10 11 13 14 15 15 15 15 14 13 13 13 12 12 12 11 11 11 10 10 10 11 11 12 12
6 4 4 4 5 6 5 6 5 5 2 6 2 4 4 3 6 7 8 7 6 6 7 5 6 8 11 13 13 14 14 15 15 14 13 13 12 12 12 12 11 11 11 11 11 11 11 11 11
6 4 2 4 3 6 4 3 1 6 8 1 7 6 7 3 9 7 6 6 6 6 6 6 6 6 6 6 11 12 13 14 15 14 13 11 11 11 11 9 11 11 11 11 11 11 10 10 11
4 4 3 6 4 5 2 3 2 1 2 3 7 4 2 5 9 7 4 3 4 6 7 7 7 6 6 5 6 9 11 12 13 12 12 10 4 5 6 7 11 11 10 10 10 10 9 9 10
4 4 9 6 4 4 3 3 3 1 3 4 5 1 3 7 9 11 9 13 10 10 9 7 7 7 6 4 5 5 5 4 5 6 6 5 5 4 4 7 10 10 10 10 9 8 8 7 4
5 7 6 6 8 4 4 4 4 4 7 11 10 8 7 8 9 13 14 13 18 10 7 10 8 6 7 5 4 3 2 3 3 6 6 5 4 3 3 3 3 3 6 3 5 5 3 5 4
3 9 6 5 4 2 4 4 5 9 18 7 12 3 8 12 15 17 16 16 13 13 13 11 10 9 7 4 5 5 4 4 4 5 7 5 3 4 4 3 4 3 2 4 3 2 3 4 3
5 4 6 6 8 8 5 11 8 12 13 10 8 7 12 13 17 16 15 11 9 13 14 14 13 12 10 8 5 5 6 5 5 5 6 5 5 5 5 4 3 3 3 3 3 3 2 3 3
2 5 8 6 6 6 6 13 5 21 2 11 9 14 12 14 20 11 11 15 15 16 16 15 16 14 12 11 10 8 6 6 6 5 6 7 5 5 5 5 4 3 3 3 3 3 2 2 2
4 9 9 7 7 9 6 14 13 26 4 12 11 12 10 17 10 20 21 19 19 17 14 18 18 16 15 15 12 9 8 7 7 6 7 7 6 6 6 5 4 4 4 5 4 2 2 3 3
4 1 6 2 7 4 9 16 18 7 8 15 13 10 10 14 18 19 16 18 15 14 18 16 16 18 17 15 12 9 8 8 7 6 5 7 7 7 6 5 5 4 4 4 3 2 1 2 3
2 6 8 14 12 6 8 10 13 2 5 12 12 12 9 13 11 16 18 19 17 19 16 17 19 20 20 15 11 10 9 8 7 5 6 7 8 8 6 5 4 5 4 3 3 2 2 3 4
9 6 6 7 7 6 6 15 15 14 5 12 14 14 13 14 21 16 15 17 17 17 17 16 15 17 17 11 8 5 5 6 5 7 7 9 7 8 6 5 6 5 4 4 2 2 3 3 2
3 5 8 8 8 4 12 18 16 19 14 14 18 19 21 22 24 16 13 13 13 12 15 18 19 19 15 11 11 9 13 9 7 7 10 11 9 9 8 5 6 5 5 5 5 3 3 3 3
9 15 18 17 19 6 15 23 17 17 16 25 26 22 21 22 22 18 11 10 16 18 19 17 19 19 17 14 13 7 10 5 7 6 7 9 10 10 8 8 7 6 5 6 5 4 3 2 2
8 7 18 15 9 6 11 20 15 12 20 24 26 25 26 20 22 23 13 12 12 16 20 20 22 22 19 16 10 4 6 4 4 4 5 7 10 10 9 9 7 7 5 6 5 5 6 4 1
16 11 14 13 3 10 2 20 6 10 13 9 22 22 16 18 19 18 17 8 13 17 14 17 18 19 17 18 15 18 12 11 8 10 9 9 12 11 10 10 9 8 5 6 5 4 3 4 4
13 6 8 3 4 7 7 5 2 3 5 15 20 21 19 18 15 19 17 10 12 13 15 13 13 16 18 20 18 15 13 9 5 4 11 11 10 11 11 10 9 8 6 6 7 6 5 3 4
1 2 2 5 4 7 8 9 33 7 9 5 9 10 14 16 16 14 8 7 9 5 8 12 16 16 17 19 18 20 18 11 9 10 11 10 9 8 9 10 9 8 7 7 6 6 7 5 4
4 5 5 4 2 12 4 8 28 6 6 9 11 12 14 12 10 9 8 8 8 9 9 10 15 15 15 18 19 19 16 15 16 14 11 13 10 9 12 13 11 9 9 9 7 6 6 6 4
10 12 8 8 11 16 3 9 18 13 8 8 8 11 9 14 15 11 10 9 10 9 10 12 14 14 16 18 17 15 15 11 11 12 10 11 12 12 13 13 12 10 10 9 8 5 5 6 5
4 7 9 5 3 3 7 16 12 26 28 7 9 8 9 10 10 13 11 8 6 5 6 9 11 12 14 15 14 15 14 15 14 12 11 9 9 9 13 15 14 12 11 11 9 7 7 6 5
6 2 2 1 4 10 10 12 12 23 22 14 9 8 10 7 10 9 6 5 4 2 3 6 8 11 12 14 13 13 14 13 12 11 14 13 11 13 14 14 14 14 13 12 11 7 7 8 5
4 5 5 2 8 18 20 13 11 26 31 19 11 8 8 9 7 7 8 6 5 3 6 7 7 8 11 13 14 13 13 13 12 12 13 14 12 14 15 15 15 15 15 14 13 11 11 10 8
5 16 19 13 12 12 18 20 10 19 19 20 16 12 9 10 8 6 5 4 5 8 7 9 9 10 11 10 12 13 11 12 13 14 14 14 14 14 15 15 15 15 15 15 15 14 12 12 11
Wind_Direction
5 350 75 39 45 61 265 261 255 239 228 180 131 150 189 170 169 209 337 186 139 146 164 169 171 154 150 153 146 138 147 147 131 134 122 114 109 104 96 92 79 81 79 75 67 60 45 32 22
3 68 43 77 87 29 269 252 236 217 195 124 131 109 174 226 180 201 127 198 162 151 149 158 166 158 161 153 152 134 117 118 124 113 103 109 118 115 104 93 79 78 77 70 68 60 47 34 28
8 41 84 97 126 194 226 233 233 284 155 171 149 206 184 223 209 192 223 156 149 149 151 164 165 167 168 171 174 161 158 153 138 129 148 137 125 116 108 97 88 83 75 71 69 61 54 44 36
54 12 34 96 235 255 216 251 207 177 269 244 181 239 284 212 165 193 150 146 140 150 154 164 170 178 178 180 179 175 171 158 152 156 149 142 131 123 113 105 101 92 86 80 74 68 64 62 54
33 54 55 268 257 260 250 251 170 188 232 223 178 270 253 235 22 134 148 149 151 153 160 160 171 175 177 176 172 168 170 162 160 155 151 146 140 133 124 120 111 100 95 89 83 77 71 60 52
37 91 45 257 252 267 277 213 156 199 202 298 214 180 253 336 149 167 143 146 149 153 163 167 171 173 172 174 173 170 168 164 159 156 153 152 146 140 132 130 123 116 107 95 81 72 65 60 55
117 91 228 260 259 294 257 133 182 185 194 239 176 192 270 276 206 143 138 130 143 154 157 165 163 168 173 174 172 170 169 166 163 161 158 153 149 142 137 133 126 116 105 97 87 80 72 66 60
107 96 281 254 263 277 317 221 42 158 246 63 171 231 258 231 141 107 111 135 154 170 173 173 167 161 164 167 169 170 172 169 166 161 152 146 144 141 131 127 119 110 106 98 90 82 74 69 60
121 63 244 252 195 257 189 217 194 189 227 231 209 196 316 113 118 113 123 171 187 206 189 180 175 169 162 163 167 168 169 169 164 154 147 129 124 123 114 126 117 113 105 98 86 79 73 64 56
113 151 225 216 227 254 293 208 261 254 224 256 276 236 85 138 163 170 183 195 204 205 203 188 179 175 165 163 159 153 161 157 144 140 129 136 140 138 129 116 117 110 105 103 98 87 69 51 40
177 216 218 255 234 250 255 251 227 214 256 219 218 228 171 179 193 197 205 202 207 201 192 195 187 177 169 170 158 156 152 151 153 158 154 156 150 122 110 91 90 97 94 64 69 64 54 51 44
224 247 217 258 224 263 244 262 246 191 248 209 229 179 167 191 202 205 210 210 197 192 195 187 187 181 182 164 174 171 167 173 182 180 169 154 155 146 145 142 144 123 121 112 106 82 74 62 57
223 255 260 261 272 260 306 253 241 260 251 249 240 192 202 206 213 219 219 218 199 203 198 195 184 187 185 179 173 176 186 186 185 184 177 161 160 164 153 159 144 139 139 124 112 106 87 53 31
250 260 263 268 241 249 221 272 139 264 238 247 235 235 220 211 216 216 216 217 205 204 202 190 193 189 180 188 185 189 186 187 185 185 182 177 162 158 158 158 161 153 157 137 126 116 81 45 11
289 307 309 204 227 230 149 287 231 257 197 266 246 241 239 228 209 219 219 219 211 210 198 193 191 186 187 192 189 186 188 183 189 190 182 174 167 162 162 157 167 171 163 136 116 109 86 51 358
330 321 324 311 120 250 144 265 260 273 211 262 268 260 243 244 224 233 225 222 213 207 202 191 191 189 190 192 189 189 185 184 189 182 173 173 167 164 162 166 174 174 152 142 132 133 111 60 28
304 238 225 306 196 179 185 248 275 284 173 272 283 278 266 271 247 235 224 220 208 203 198 196 191 191 192 190 185 183 181 188 185 163 173 175 170 170 163 169 166 165 145 145 159 81 84 40 9
226 219 249 233 274 183 227 249 281 283 198 250 264 274 270 263 261 246 224 218 210 201 195 192 193 194 190 183 173 159 167 188 165 182 182 172 175 167 160 164 164 159 150 154 132 113 54 66 357
165 224 238 257 262 262 247 264 256 268 274 264 261 257 257 255 251 245 226 203 202 192 189 190 186 191 178 180 178 186 198 189 189 186 180 177 173 170 168 163 164 167 165 168 158 131 121 39 9
242 258 265 272 268 255 269 266 262 249 252 257 264 265 256 258 264 257 234 196 195 193 195 193 197 186 188 188 191 193 184 191 191 175 174 177 173 172 170 169 178 170 154 161 164 148 122 103 7
224 228 259 261 306 240 284 276 240 254 248 257 265 262 266 262 264 265 249 207 200 202 194 193 195 190 189 183 167 91 88 65 122 166 178 183 179 176 171 173 169 169 166 174 176 164 161 148 332
270 226 254 268 333 276 24 295 176 233 234 240 252 265 266 270 264 263 268 219 202 220 204 198 189 186 183 175 174 181 187 183 196 187 183 180 180 181 179 177 174 173 164 172 177 169 160 134 159
244 197 229 196 204 322 190 263 176 173 229 240 253 260 270 264 264 265 258 228 216 203 199 191 184 178 178 178 182 184 191 186 152 142 162 179 185 186 184 177 170 171 172 170 169 164 166 161 150
52 92 86 55 117 264 197 164 286 187 207 240 249 257 261 270 268 270 285 212 230 203 170 171 174 183 180 178 179 189 188 164 151 163 173 180 183 186 180 171 173 172 167 173 175 172 171 177 168
142 81 306 322 135 232 98 177 258 304 247 221 239 258 268 284 290 297 280 243 238 197 177 173 179 181 176 183 182 187 189 180 185 174 180 176 180 188 188 177 177 182 179 172 167 167 168 174 175
189 167 183 222 256 265 100 238 266 266 266 262 254 252 291 296 304 294 264 255 230 199 180 177 180 176 176 187 189 186 184 184 189 182 179 184 190 191 176 183 180 175 171 169 168 170 162 164 180
170 189 241 274 349 296 247 270 295 277 286 231 277 305 297 291 312 302 297 279 276 215 197 188 181 183 184 191 185 190 189 187 191 181 180 180 175 175 172 181 179 175 171 167 167 174 172 164 175
194 294 294 156 242 244 220 240 251 282 269 271 326 297 298 315 321 311 294 304 289 204 174 184 197 195 189 189 197 195 196 199 189 172 184 181 175 168 170 178 183 176 173 169 168 168 166 169 182
228 246 223 250 207 249 257 251 229 261 270 299 273 262 262 287 311 340 334 307 302 241 191 210 189 193 194 192 192 195 194 192 189 191 193 185 171 173 174 179 180 180 176 173 173 175 170 176 175
228 238 236 239 255 244 256 248 256 265 280 289 284 290 299 290 299 314 295 283 249 234 211 204 211 206 209 203 192 203 192 188 195 193 189 184 181 179 178 176 179 182 182 175 177 175 177 175 179